Notices

What's New in latest Release from April 7th, 2021:

- Updated Glossary, including Speed of Maximum Gust, and Total Hourly Precipitation

- Updated national and regional climate services offices contacts and prices information

- Addition of station inventory lists for 1981-2010, 1971-2000, and 1961-1990 Normals.

If you haven't already, please take our survey and provide feedback about our website: https://eccc.sondage-survey.ca/f/LanguageSelection.aspx?s=442ca660-fcf1-47c0-95a9-59707d6fd709

Hourly Data Report for March 29, 2021

MIRAMICHI RCS
NEW BRUNSWICK
Current Station Operator: ECCC - MSC

47°00'34.000" N
65°27'54.000" W
33.00 m
8100989
71744
ACQ

Download Data

Hourly Data (March 2021)
Hourly Data Report for March 29, 2021
TIME
LST
Temp Definition
°C
Dew Point Definition
°C
Rel Hum Definition
%
Precip. Amount Definition
mm

Wind Dir Definition
10's deg

Wind Spd Definition
km/h
Visibility Definition
km
Stn Press Definition
kPa
Hmdx Definition


Wind Chill Definition


Weather Definition


00:00 0.1 -0.5 96 LegendMM 9 16   99.63     LegendNANA
01:00 0.1 -0.4 97 LegendMM 7 14   99.35     LegendNANA
02:00 0.0 -0.4 97 LegendMM 6 14   99.05   -4 LegendNANA
03:00 0.1 -0.3 97 LegendMM 5 12   98.74     LegendNANA
04:00 0.2 -0.2 98 LegendMM 4 6   98.65     LegendNANA
05:00 0.2 -0.1 98 LegendMM 7 7   98.38     LegendNANA
06:00 0.1 -0.2 98 LegendMM 8 8   98.06     LegendNANA
07:00 0.2 0.0 99 LegendMM 28 9   98.16     LegendNANA
08:00 0.2 0.1 99 LegendMM 24 8   98.15     LegendNANA
09:00 0.5 0.1 97 LegendMM 24 7   98.06     LegendNANA
10:00 1.1 0.4 95 LegendMM 23 15   98.03     LegendNANA
11:00 2.3 1.1 92 LegendMM 23 20   98.02     LegendNANA
12:00 4.8 2.2 83 LegendMM 25 22   97.99     LegendNANA
13:00 5.3 2.1 79 LegendMM 24 29   98.02     LegendNANA
14:00 3.9 0.8 80 LegendMM 29 24   98.22     LegendNANA
15:00 3.3 0.0 79 LegendMM 28 25   98.49     LegendNANA
16:00 3.8 -2.9 62 LegendMM 30 30   98.73     LegendNANA
17:00 3.7 -3.4 60 LegendMM 29 26   99.00     LegendNANA
18:00 2.2 -4.4 62 LegendMM 28 36   99.36     LegendNANA
19:00 1.1 -5.3 62 LegendMM 29 34   99.68     LegendNANA
20:00 0.2 -5.7 65 LegendMM 28 31   100.02     LegendNANA
21:00 -0.5 -8.1 56 LegendMM 29 23   100.28   -6 LegendNANA
22:00 -1.4 -9.5 54 LegendMM 29 32   100.51   -9 LegendNANA
23:00 -2.2 -9.5 57 LegendMM 28 22   100.71   -8 LegendNANA

Notes on Data Quality.

Legend

  • E = Estimated
  • M = Missing
  • NA = Not Available*
  • [empty] = Indicates an unobserved value
Date modified: